Regional Weather Roundup
Issued by NWS Boston, MA

Home | Current Version | Previous Version | Text Only | Print | Product List | Glossary On
Versions: 1 2 3 4 5 6 7 8 9 10 11 12 13 14 15 16 17 18 19 20 21 22 23 24 25 26 27
000
ASUS41 KBOX 290810
RWRBOX

REGIONAL WEATHER ROUNDUP
NATIONAL WEATHER SERVICE TAUNTON MA
400 AM EDT SUN MAY 29 2016

NOTE:  "FAIR" INDICATES FEW OR NO CLOUDS BELOW 12,000 FEET WITH NO
SIGNIFICANT WEATHER AND/OR OBSTRUCTIONS TO VISIBILITY.  THE FOLLOWING
OBSERVATION LOCATIONS DO NOT REPORT PRESENT WEATHER...PROVINCETOWN...
SMITHFIELD...BLOCK ISLAND...KEENE...AND OXFORD.

MAZALL-290900-
EASTERN MASSACHUSETTS

CITY           SKY/WX    TMP DP  RH WIND       PRES   REMARKS
BOSTON         PTCLDY    63  58  83 N12       30.13R
BEVERLY        CLOUDY    59  55  87 N15G22    30.14R
LAWRENCE       CLOUDY    62  58  86 NE12      30.16R
BEDFORD        CLEAR     64  60  87 NE7       30.12R
BLUE HILL        N/A     65  62  90 NE10      30.12R
NORWOOD        CLEAR     68  65  90 NE5       30.11R
MARSHFIELD     CLEAR     64  59  82 VRB7      30.11R
PLYMOUTH       CLEAR     63  58  83 SW5       30.12R
TAUNTON        PTCLDY    64  58  80 CALM      30.11R
NEW BEDFORD    MOCLDY    63  52  67 SW6       30.10F
$$

MAZALL-290900-
CAPE COD AND THE ISLANDS

CITY           SKY/WX    TMP DP  RH WIND       PRES   REMARKS
FALMOUTH       PTCLDY    63  54  72 W12       30.12S
HYANNIS        PTCLDY    64  52  64 SW9       30.11R
CHATHAM        CLEAR     62  56  80 W5        30.13R
PROVINCETOWN   PTCLDY    61  56  83 S6        30.12S
NANTUCKET      CLEAR     59  56  89 SW8       30.14S
MARTHAS VNYRD  CLEAR     61  56  83 SW8       30.13S
$$

MAZALL-290900-
CENTRAL AND WESTERN MASSACHUSETTS

CITY           SKY/WX    TMP DP  RH WIND       PRES   REMARKS
WORCESTER      CLEAR     69  64  84 N6        30.15R
FITCHBURG      PTCLDY    70  65  84 N3        30.15R
ORANGE         CLEAR     64  62  93 CALM      30.13R
SPRINGFIELD    CLEAR     65  62  91 CALM      30.10S
WESTFIELD      CLEAR     66  63  90 CALM      30.11S
NORTH ADAMS    CLEAR     62  60  93 CALM      30.12S FOG
PITTSFIELD     CLEAR     63  61  93 CALM      30.13F FOG
$$

RIZALL-290900-
RHODE ISLAND

CITY           SKY/WX    TMP DP  RH WIND       PRES   REMARKS
PROVIDENCE     CLEAR     69  53  56 SW3       30.11F
NEWPORT        CLEAR     64  51  62 CALM      30.12S
BLOCK ISLAND   CLEAR     61  57  87 SW15      30.14S
SMITHFIELD     CLEAR    N/A N/A N/A NE10      30.12R
WESTERLY       CLEAR     63  54  72 CALM      30.13F
$$

CTZALL-290900-
CONNECTICUT

CITY           SKY/WX    TMP DP  RH WIND       PRES   REMARKS
BRADLEY INTL   CLEAR     67  60  78 S5        30.10S
HARTFORD       PTCLDY    71  60  68 CALM      30.10F
BRIDGEPORT     CLEAR     69  58  67 SW8       30.11F
DANBURY        PTCLDY    67  64  90 CALM      30.13F
GROTON         CLEAR     62  54  74 S3        30.12S
NEW HAVEN      CLEAR     65  56  72 S5        30.12S
CHESTER        FAIR      68  54  60 SW8       30.13S
MERIDEN        CLEAR     65  59  81 CALM      30.11F
WILLIMANTIC    PTCLDY    66  62  87 CALM      30.12F
OXFORD           N/A     68  61  77 CALM      30.14F
$$

MEZ002-015-021-024-NHZ003-005-008-011-012-014-VTZ005-008-290900-
NORTHERN NEW ENGLAND

CITY           SKY/WX    TMP DP  RH WIND       PRES   REMARKS
PORTLAND ME    MOCLDY    58  52  80 NE8       30.21S
BANGOR ME      CLOUDY    60  49  66 SE6       30.25S
CONCORD NH     CLOUDY    66  61  84 NE6       30.16S
MANCHESTER NH  CLOUDY    65  60  84 NE7       30.14R
NASHUA NH      MOCLDY    64  61  88 N6        30.15R
PORTSMOUTH NH  CLOUDY    58  54  86 NE8       30.16R
JAFFREY NH     CLEAR     65  63  93 CALM      30.16S
KEENE NH       CLEAR     63  61  94 CALM      30.14R
BURLINGTON VT  FAIR      67  60  78 CALM      30.07S
MT. WASHINGTON MOCLDY    54  52  94 SW17        N/A
$$

NYZ052-076-290900-
EASTERN NEW YORK

CITY           SKY/WX    TMP DP  RH WIND       PRES   REMARKS
ALBANY         CLEAR     71  65  81 CALM      30.09S
NEW YORK CITY  CLEAR     76  59  55 SW6       30.11F
$$

ANZALL-290900-
MARINE OBSERVATIONS

STATION/POSITION TIME  TEMP    WIND        PRES    VSBY  WAVE
                       AIR SEA DIR/SP/G                  HT/PER
                 (UTC) (F)     (DEG/KT/KT) (MB)    (MI)  (FT/S)
BOSTON BUOY      0750   58 58  360/  8/ 12 1019.7R         1/10
BUZZARDS BAY     0700   60     230/ 18/ 19 1020.2F
NANTUCKET SOUND  0750   61 58  240/ 16/ 17 1019.6F         1/ 3
MASS BAY-STELLWA 0704   58 57                N/A    1 3/4  1/ 6
ISLE OF SHOALS   0700   55      20/ 23/ 26 1020.3R
S OF BLOCK IS    0725      57                N/A           3/ 5
$$

......................KEY.........................
  SKY/WX - SKY CONDITION/PRESENT WEATHER
  TMP    - TEMPERATURE IN FAHRENHEIT
  DWPT   - DEWPOINT IN FAHRENHEIT
  RH     - RELATIVE HUMIDITY IN PERCENT
  WIND   - DIRECTION AND SPEED IN MPH
  PRES   - MEAN SEA LEVEL PRESSURE IN INCHES OF HG
  WCI    - WIND CHILL INDEX
  VSB    - VISIBILITY IN MILES
  HX     - HEAT INDEX
  TC     - TEMPERATURE IN CELSIUS
  VRB    - VARIABLE WIND DIRECTION
  N/A    - NOT AVAILABLE




USA.gov is the U.S. government's official web portal to all federal, state and local government web resources and services.